This is the latest recevied weather packets stored in our database for station/object SP8EBC-11. If no packets are shown the sender has not sent any weather packets the latest 1 day(s).
| Time | Temp. | Humidity | Pressure | Rain* | Wind** | Luminosity | Snow |
|---|---|---|---|---|---|---|---|
| 1777988511 | 20.56° C | 61% | 991.7 hPa | - | 4.02 m/s, 33° | - | - |
| 1777988391 | 20.56° C | 61% | 991.8 hPa | - | 4.02 m/s, 27° | - | - |
| 1777988270 | 20.56° C | 61% | 991.8 hPa | - | 4.47 m/s, 20° | - | - |
| 1777988150 | 20.56° C | 61% | 991.8 hPa | - | 4.02 m/s, 22° | - | - |
| 1777988030 | 20.56° C | 61% | 991.8 hPa | - | 4.02 m/s, 20° | - | - |
| 1777987910 | 20.56° C | 61% | 991.8 hPa | - | 3.58 m/s, 21° | - | - |
| 1777987790 | 20.56° C | 61% | 991.7 hPa | - | 2.68 m/s, 21° | - | - |
| 1777987670 | 20.56° C | 61% | 991.7 hPa | - | 2.68 m/s, 28° | - | - |
| 1777987550 | 20.56° C | 61% | 991.7 hPa | - | 2.68 m/s, 27° | - | - |
| 1777987430 | 20.56° C | 61% | 991.7 hPa | - | 3.13 m/s, 33° | - | - |
| 1777987310 | 20.56° C | 61% | 991.7 hPa | - | 3.13 m/s, 21° | - | - |
| 1777987189 | 20.56° C | 61% | 991.7 hPa | - | 3.13 m/s, 21° | - | - |
| 1777987070 | 20.56° C | 61% | 991.7 hPa | - | 3.58 m/s, 25° | - | - |
| 1777986950 | 20.56° C | 61% | 991.7 hPa | - | 3.58 m/s, 32° | - | - |
| 1777986830 | 20.56° C | 61% | 991.7 hPa | - | 3.13 m/s, 32° | - | - |
| 1777986710 | 20.56° C | 61% | 991.7 hPa | - | 3.13 m/s, 38° | - | - |
| 1777986590 | 20.56° C | 61% | 991.8 hPa | - | 3.13 m/s, 35° | - | - |
| 1777986470 | 20.56° C | 61% | 991.8 hPa | - | 3.58 m/s, 33° | - | - |
| 1777986350 | 20.56° C | 61% | 991.9 hPa | - | 4.47 m/s, 40° | - | - |
| 1777986228 | 20.56° C | 61% | 991.9 hPa | - | 4.02 m/s, 46° | - | - |
| 1777986109 | 20.56° C | 60% | 991.9 hPa | - | 4.02 m/s, 37° | - | - |
| 1777985990 | 21.11° C | 60% | 991.9 hPa | - | 3.58 m/s, 34° | - | - |
| 1777985869 | 21.11° C | 60% | 991.9 hPa | - | 2.24 m/s, 37° | - | - |
| 1777985749 | 21.11° C | 60% | 991.9 hPa | - | 2.24 m/s, 28° | - | - |
| 1777985628 | 21.11° C | 60% | 992 hPa | - | 3.13 m/s, 31° | - | - |
* Rain since midnight (hover to see other rain measurements)
** Current wind speed in m/s (hover to see current wind gust speed)